Weather History for Lexington, NE

Change the Weather History Date:

Monday, March 25, 2013

  Actual Average Record
Temperature  
Mean Temperature 24 °F -  
Max Temperature 32 °F 53 °F 125 °F (2007)
Min Temperature 17 °F 28 °F 12 °F (2006)
Degree Days  
Heating Degree Days 40    
Moisture  
Dew Point 13 °F    
Average Humidity 67    
Maximum Humidity 86    
Minimum Humidity 45    
Precipitation  
Precipitation 0.00 in - - ()
Sea Level Pressure  
Sea Level Pressure 30.27 in    
Wind  
Wind Speed 13 mph (NNW)    
Max Wind Speed 22 mph    
Max Gust Speed 30 mph    
Visibility 10 miles    
Events Snow    
Averages and records for this station are not official NWS values.
T = Trace of Precipitation, MM = Missing Value Source: NWS Daily Summary

Daily Weather History Graph

Daily Weather History Graph

Search for Another Location

Airport:

Trip Planner

Search our weather history database for the weather conditions in past years. The results will help you decide how hot, cold, wet, or windy it might be!

Date:

Astronomy

Mar. 25, 2013 Rise Set
Actual Time 7:33 AM CDT 7:56 PM CDT
Civil Twilight 7:06 AM CDT 8:24 PM CDT
Nautical Twilight 6:34 AM CDT 8:56 PM CDT
Astronomical Twilight 6:01 AM CDT 9:29 PM CDT
Moon 6:30 PM CDT 6:18 AM CDT
Length of Visible Light 13h 18m
Length of Day
12h 23m
Waxing Gibbous, 96% of the Moon is Illuminated
Mar 25
Waxing Gibbous
Mar 27
Full
Apr 2
Last Quarter
Apr 10
New
Apr 18
First Quarter

Hourly Weather History & Observations

Time (CDT) Temp. Windchill Dew Point Humidity Pressure Visibility Wind Dir Wind Speed Gust Speed Precip Events Conditions
12:15 AM 21.2 °F 7.3 °F 16.3 °F 82% 30.20 in 10.0 mi NNW 16.1 mph 20.7 mph N/A   Clear
12:35 AM 21.2 °F 8.9 °F 16.3 °F 82% 30.20 in 10.0 mi NNW 12.7 mph - N/A   Clear
12:55 AM 21.2 °F 8.3 °F 16.2 °F 81% 30.20 in 10.0 mi NNW 13.8 mph - N/A   Clear
1:15 AM 21.4 °F 8.0 °F 15.8 °F 79% 30.20 in 10.0 mi NNW 15.0 mph 18.4 mph N/A   Clear
1:35 AM 21.9 °F 8.7 °F 15.8 °F 77% 30.21 in 10.0 mi NW 15.0 mph 23.0 mph N/A   Scattered Clouds
1:55 AM 21.0 °F 9.3 °F 16.5 °F 83% 30.21 in 10.0 mi NW 11.5 mph - N/A   Scattered Clouds
2:15 AM 21.4 °F 8.5 °F 16.0 °F 80% 30.22 in 10.0 mi NW 13.8 mph - N/A   Mostly Cloudy
2:35 AM 21.2 °F 8.3 °F 16.2 °F 81% 30.23 in 10.0 mi NW 13.8 mph - N/A   Overcast
2:55 AM 19.8 °F 7.7 °F 15.1 °F 82% 30.23 in 10.0 mi NW 11.5 mph - N/A   Mostly Cloudy
3:15 AM 19.2 °F 7.7 °F 15.1 °F 84% 30.23 in 10.0 mi NW 10.4 mph - N/A   Scattered Clouds
3:35 AM 19.6 °F 6.8 °F 15.6 °F 85% 30.22 in 10.0 mi NW 12.7 mph - N/A Snow Light Snow
3:55 AM 19.8 °F 7.1 °F 15.6 °F 84% 30.22 in 10.0 mi NW 12.7 mph - N/A Snow Light Snow
4:15 AM 20.1 °F 5.9 °F 15.8 °F 83% 30.22 in 10.0 mi NW 16.1 mph - N/A Snow Light Snow
4:35 AM 19.0 °F 5.0 °F 14.7 °F 83% 30.22 in 10.0 mi NW 15.0 mph - N/A   Mostly Cloudy
4:55 AM 18.5 °F 6.1 °F 14.4 °F 84% 30.23 in 10.0 mi NW 11.5 mph - N/A Snow Light Snow
5:15 AM 17.4 °F 5.4 °F 13.6 °F 85% 30.23 in 10.0 mi WNW 10.4 mph - N/A   Clear
5:35 AM 17.2 °F 5.2 °F 13.6 °F 86% 30.24 in 10.0 mi NW 10.4 mph - N/A   Clear
5:55 AM 17.6 °F 5.7 °F 13.8 °F 85% 30.24 in 10.0 mi NW 10.4 mph - N/A   Clear
6:15 AM 18.0 °F 6.1 °F 13.8 °F 84% 30.25 in 10.0 mi NW 10.4 mph - N/A   Clear
6:35 AM 17.6 °F 5.7 °F 13.5 °F 84% 30.25 in 10.0 mi NW 10.4 mph - N/A   Clear
6:55 AM 17.4 °F 4.1 °F 13.5 °F 84% 30.26 in 10.0 mi NW 12.7 mph - N/A   Clear
7:15 AM 18.3 °F 4.1 °F 14.0 °F 83% 30.26 in 10.0 mi NW 15.0 mph - N/A   Scattered Clouds
7:35 AM 19.0 °F 5.6 °F 13.6 °F 79% 30.26 in 10.0 mi NW 13.8 mph - N/A   Scattered Clouds
7:55 AM 18.5 °F 4.9 °F 13.1 °F 79% 30.27 in 10.0 mi NW 13.8 mph - N/A   Clear
8:15 AM 18.5 °F 5.5 °F 13.5 °F 81% 30.27 in 10.0 mi NW 12.7 mph - N/A   Clear
8:35 AM 18.5 °F 4.9 °F 13.3 °F 80% 30.28 in 10.0 mi NW 13.8 mph - N/A   Clear
8:55 AM 20.3 °F 6.6 °F 14.5 °F 78% 30.29 in 10.0 mi NW 15.0 mph - N/A   Clear
9:15 AM 21.2 °F 6.0 °F 14.9 °F 77% 30.29 in 10.0 mi NW 19.6 mph 29.9 mph N/A   Clear
9:35 AM 22.1 °F 7.6 °F 15.1 °F 74% 30.30 in 10.0 mi NNW 18.4 mph 23.0 mph N/A   Clear
9:55 AM 22.8 °F 7.4 °F 14.9 °F 72% 30.30 in 10.0 mi NNW 21.9 mph - N/A   Scattered Clouds
10:15 AM 23.5 °F 8.7 °F 14.2 °F 67% 30.30 in 10.0 mi NNW 20.7 mph - N/A   Scattered Clouds
10:35 AM 23.5 °F 9.4 °F 13.1 °F 64% 30.31 in 10.0 mi NNW 18.4 mph 26.5 mph N/A   Scattered Clouds
10:55 AM 24.1 °F 10.1 °F 12.7 °F 62% 30.31 in 10.0 mi NNW 18.4 mph 28.8 mph N/A   Mostly Cloudy
11:15 AM 24.1 °F 10.6 °F 13.3 °F 63% 30.31 in 7.0 mi NNW 17.3 mph 26.5 mph N/A Snow Light Snow
11:35 AM 24.6 °F 10.5 °F 11.7 °F 58% 30.31 in 10.0 mi NNW 19.6 mph 25.3 mph N/A   Overcast
11:55 AM 25.3 °F 11.4 °F 11.7 °F 56% 30.32 in 10.0 mi NNW 19.6 mph 25.3 mph N/A   Overcast
12:15 PM 26.6 °F 14.7 °F 11.5 °F 53% 30.31 in 10.0 mi NNW 15.0 mph 26.5 mph N/A   Overcast
12:35 PM 26.4 °F 13.2 °F 10.0 °F 50% 30.31 in 10.0 mi North 18.4 mph 27.6 mph N/A   Mostly Cloudy
12:55 PM 27.1 °F 14.5 °F 10.2 °F 49% 30.31 in 10.0 mi NNW 17.3 mph 25.3 mph N/A   Mostly Cloudy
1:15 PM 27.3 °F 13.3 °F 9.9 °F 48% 30.31 in 10.0 mi North 21.9 mph 25.3 mph N/A   Mostly Cloudy
1:35 PM 27.5 °F 16.3 °F 10.0 °F 48% 30.31 in 10.0 mi NNW 13.8 mph 28.8 mph N/A   Scattered Clouds
1:55 PM 29.1 °F 16.4 °F 10.8 °F 46% 30.31 in 10.0 mi NNW 19.6 mph - N/A   Scattered Clouds
2:15 PM 28.4 °F 16.6 °F 10.6 °F 47% 30.30 in 10.0 mi NNW 16.1 mph 23.0 mph N/A   Scattered Clouds
2:35 PM 29.8 °F 18.4 °F 10.8 °F 45% 30.30 in 10.0 mi NNW 16.1 mph 23.0 mph N/A   Scattered Clouds
2:55 PM 30.0 °F 19.1 °F 10.9 °F 45% 30.29 in 10.0 mi NNW 15.0 mph 21.9 mph N/A   Mostly Cloudy
3:15 PM 30.9 °F 20.7 °F 12.0 °F 46% 30.29 in 10.0 mi NNW 13.8 mph 20.7 mph N/A   Mostly Cloudy
3:35 PM 31.1 °F 21.4 °F 11.8 °F 45% 30.28 in 10.0 mi NNW 12.7 mph 18.4 mph N/A   Mostly Cloudy
3:55 PM 31.6 °F 20.4 °F 12.7 °F 46% 30.28 in 10.0 mi NNW 17.3 mph 24.2 mph N/A   Scattered Clouds
4:15 PM 31.1 °F 20.1 °F 12.6 °F 46% 30.27 in 10.0 mi North 16.1 mph 21.9 mph N/A   Scattered Clouds
4:35 PM 30.9 °F 21.2 °F 12.4 °F 46% 30.28 in 10.0 mi North 12.7 mph 24.2 mph N/A   Scattered Clouds
4:55 PM 31.6 °F 23.1 °F 12.7 °F 46% 30.27 in 10.0 mi North 10.4 mph 17.3 mph N/A   Scattered Clouds
5:15 PM 31.8 °F 23.3 °F 12.7 °F 45% 30.27 in 10.0 mi North 10.4 mph - N/A   Clear
5:35 PM 32.0 °F 22.5 °F 13.1 °F 46% 30.27 in 10.0 mi NNW 12.7 mph 25.3 mph N/A   Clear
5:55 PM 32.0 °F 23.6 °F 12.9 °F 45% 30.27 in 10.0 mi NW 10.4 mph 19.6 mph N/A   Clear
6:15 PM 32.0 °F 24.8 °F 12.9 °F 45% 30.27 in 10.0 mi NNE 8.1 mph - N/A   Clear
6:35 PM 32.0 °F 24.8 °F 12.7 °F 45% 30.27 in 10.0 mi North 8.1 mph 17.3 mph N/A   Clear
6:55 PM 31.3 °F 23.9 °F 12.7 °F 46% 30.28 in 10.0 mi NNE 8.1 mph - N/A   Clear
7:15 PM 29.8 °F 20.9 °F 12.9 °F 49% 30.28 in 10.0 mi NNE 10.4 mph - N/A   Clear
7:35 PM 28.4 °F 19.7 °F 13.3 °F 53% 30.29 in 10.0 mi NE 9.2 mph - N/A   Clear
7:55 PM 26.4 °F 17.3 °F 14.0 °F 59% 30.29 in 10.0 mi NE 9.2 mph - N/A   Clear
8:15 PM 24.8 °F 15.3 °F 14.0 °F 64% 30.29 in 10.0 mi NE 9.2 mph - N/A   Clear
8:35 PM 23.4 °F 14.3 °F 14.0 °F 67% 30.29 in 10.0 mi NE 8.1 mph - N/A   Clear
8:55 PM 22.3 °F 14.9 °F 14.0 °F 71% 30.30 in 10.0 mi NE 5.8 mph - N/A   Clear
9:15 PM 21.0 °F 13.4 °F 13.6 °F 73% 30.31 in 10.0 mi ENE 5.8 mph - N/A   Clear
9:35 PM 19.9 °F 14.9 °F 13.8 °F 77% 30.31 in 10.0 mi ENE 3.5 mph - N/A   Clear
9:55 PM 19.8 °F - 13.6 °F 77% 30.32 in 10.0 mi Calm Calm - N/A   Clear
10:15 PM 20.3 °F - 13.1 °F 74% 30.32 in 10.0 mi Calm Calm - N/A   Clear
10:35 PM 19.8 °F - 12.6 °F 74% 30.32 in 10.0 mi Calm Calm - N/A   Clear
10:55 PM 18.3 °F - 12.0 °F 76% 30.32 in 10.0 mi Calm Calm - N/A   Clear
11:15 PM 18.1 °F 12.9 °F 12.2 °F 78% 30.32 in 10.0 mi SW 3.5 mph - N/A   Clear
11:35 PM 18.3 °F - 12.6 °F 78% 30.33 in 10.0 mi Calm Calm - N/A   Clear
11:55 PM 17.4 °F - 12.6 °F 81% 30.32 in 10.0 mi Calm Calm - N/A   Clear